| time (UTC) | temp C | wind direction | speed KPH | gust KPH | rain 1hr cm | rain 24hr cm | rain mn cm | humidity % | barometer mb |
| 20260505054435 | 13 | 145 | 0.0 | 0.0 | 1.68 | 1.19 | 1.19 | 89 | 1004.8 |
| 20260505053933 | 14 | 140 | 0.0 | 1.6 | 2.77 | 1.09 | 1.09 | 88 | 1004.8 |
| 20260505053430 | 14 | 120 | 0.0 | 0.0 | 2.29 | 0.91 | 0.91 | 87 | 1004.7 |
| 20260505052927 | 15 | 143 | 0.0 | 0.0 | 2.59 | 0.69 | 0.69 | 83 | 1005.5 |
| 20260505052423 | 16 | 168 | 1.6 | 1.6 | 3.07 | 0.51 | 0.51 | 77 | 1004.8 |
| 20260505051921 | 19 | 118 | 1.6 | 1.6 | 0.97 | 0.15 | 0.15 | 63 | 1004.5 |
| 20260505051418 | 20 | 95 | 3.2 | 3.2 | 0.00 | 0.00 | 0.00 | 51 | 1004.3 |
| 20260505050916 | 20 | 95 | 0.0 | 1.6 | 0.00 | 0.00 | 0.00 | 48 | 1003.8 |
| 20260505050414 | 21 | 124 | 1.6 | 1.6 | 0.00 | 0.00 | 0.00 | 46 | 1003.5 |
| 20260505041341 | 22 | 140 | 1.6 | 1.6 | 0.00 | 0.00 | 0.00 | 67 | 1002.6 |
| 20260505040838 | 22 | 179 | 4.8 | 8.0 | 0.00 | 0.00 | 0.00 | 67 | 1002.3 |
| 20260505040336 | 22 | 177 | 1.6 | 1.6 | 0.00 | 0.00 | 0.00 | 67 | 1002.7 |
| 20260505035833 | 22 | 248 | 1.6 | 3.2 | 0.00 | 0.00 | 0.00 | 66 | 1002.6 |
| 20260505035328 | 22 | 203 | 3.2 | 4.8 | 0.00 | 0.00 | 0.00 | 66 | 1002.7 |
| 20260505034826 | 22 | 163 | 0.0 | 0.0 | 0.00 | 0.00 | 0.00 | 66 | 1002.6 |
| 20260505034322 | 22 | 169 | 1.6 | 1.6 | 0.00 | 0.00 | 0.00 | 65 | 1002.7 |
| 20260505033820 | 22 | 150 | 0.0 | 0.0 | 0.00 | 0.00 | 0.00 | 64 | 1002.5 |
| 20260505033316 | 22 | 162 | 0.0 | 1.6 | 0.00 | 0.00 | 0.00 | 64 | 1002.9 |
| 20260505032815 | 22 | 204 | 4.8 | 4.8 | 0.00 | 0.00 | 0.00 | 63 | 1002.6 |
| 20260505032310 | 22 | 186 | 4.8 | 4.8 | 0.00 | 0.00 | 0.00 | 63 | 1002.6 |
| 20260505031808 | 22 | 176 | 3.2 | 3.2 | 0.00 | 0.00 | 0.00 | 64 | 1002.6 |
| 20260505031304 | 22 | 168 | 0.0 | 0.0 | 0.00 | 0.00 | 0.00 | 64 | 1002.6 |
| 20260505030802 | 22 | 178 | 1.6 | 1.6 | 0.00 | 0.00 | 0.00 | 64 | 1002.6 |
| 20260505030258 | 22 | 168 | 0.0 | 1.6 | 0.00 | 0.00 | 0.00 | 63 | 1002.6 |
| 20260505025753 | 22 | 171 | 0.0 | 1.6 | 0.00 | 0.00 | 0.00 | 62 | 1002.4 |
| 20260505025251 | 22 | 182 | 3.2 | 3.2 | 0.00 | 0.00 | 0.00 | 63 | 1002.6 |
| 20260505024749 | 21 | 183 | 1.6 | 1.6 | 0.00 | 0.00 | 0.00 | 66 | 1002.3 |
| 20260505024246 | 20 | 186 | 0.0 | 0.0 | 0.00 | 0.00 | 0.00 | 71 | 1002.4 |
| 20260505023743 | 20 | 186 | 0.0 | 0.0 | 0.00 | 0.00 | 0.00 | 72 | 1002.3 |
| 20260505023240 | 20 | 186 | 0.0 | 0.0 | 0.00 | 0.00 | 0.00 | 72 | 1002.0 |
| 20260505022738 | 20 | 186 | 0.0 | 0.0 | 0.00 | 0.00 | 0.00 | 71 | 1002.1 |
| 20260505022235 | 20 | 186 | 0.0 | 0.0 | 0.00 | 0.00 | 0.00 | 71 | 1001.8 |
| 20260505021731 | 21 | 186 | 0.0 | 0.0 | 0.00 | 0.00 | 0.00 | 70 | 1001.9 |
| 20260505021228 | 21 | 186 | 0.0 | 0.0 | 0.00 | 0.00 | 0.00 | 69 | 1001.9 |
| 20260505020724 | 21 | 185 | 0.0 | 0.0 | 0.00 | 0.00 | 0.00 | 68 | 1001.8 |
| 20260505020219 | 21 | 186 | 1.6 | 1.6 | 0.00 | 0.00 | 0.00 | 68 | 1001.7 |
| 20260505015717 | 21 | 186 | 0.0 | 1.6 | 0.00 | 0.00 | 0.00 | 68 | 1001.7 |
| 20260505015214 | 21 | 186 | 0.0 | 0.0 | 0.00 | 0.00 | 0.00 | 68 | 1001.5 |
| 20260505014711 | 21 | 185 | 0.0 | 0.0 | 0.00 | 0.00 | 0.00 | 67 | 1001.3 |
| 20260505014208 | 21 | 186 | 1.6 | 1.6 | 0.00 | 0.00 | 0.00 | 67 | 1001.3 |
| 20260505013705 | 21 | 185 | 0.0 | 0.0 | 0.00 | 0.00 | 0.00 | 66 | 1001.1 |
| 20260505013202 | 22 | 185 | 0.0 | 0.0 | 0.00 | 0.00 | 0.00 | 65 | 1001.2 |
| 20260505012700 | 22 | 186 | 0.0 | 0.0 | 0.00 | 0.00 | 0.00 | 64 | 1001.1 |
| 20260505012157 | 22 | 185 | 1.6 | 3.2 | 0.00 | 0.00 | 0.00 | 63 | 1001.0 |
| 20260505011653 | 22 | 184 | 0.0 | 0.0 | 0.00 | 0.00 | 0.00 | 62 | 1001.1 |
| 20260505011150 | 23 | 169 | 0.0 | 1.6 | 0.00 | 0.00 | 0.00 | 61 | 1000.9 |
| 20260505010645 | 23 | 174 | 1.6 | 1.6 | 0.00 | 0.00 | 0.00 | 61 | 1001.0 |
| 20260505010143 | 23 | 173 | 1.6 | 1.6 | 0.00 | 0.00 | 0.00 | 60 | 1000.8 |
| 20260505005638 | 23 | 176 | 1.6 | 1.6 | 0.00 | 0.00 | 0.00 | 59 | 1000.8 |
| 20260505005135 | 25 | 182 | 1.6 | 1.6 | 0.00 | 0.00 | 0.00 | 58 | 1000.7 |
| 20260505004632 | 25 | 171 | 0.0 | 0.0 | 0.00 | 0.00 | 0.00 | 56 | 1000.5 |
| 20260505004129 | 25 | 178 | 1.6 | 1.6 | 0.00 | 0.00 | 0.00 | 54 | 1000.6 |
| 20260505003626 | 26 | 167 | 0.0 | 1.6 | 0.00 | 0.00 | 0.00 | 50 | 1000.4 |
| 20260505003124 | 26 | 166 | 0.0 | 0.0 | 0.00 | 0.00 | 0.00 | 49 | 1000.4 |
| 20260505002620 | 26 | 182 | 1.6 | 1.6 | 0.00 | 0.00 | 0.00 | 48 | 1000.5 |
| 20260505002118 | 26 | 211 | 3.2 | 3.2 | 0.00 | 0.00 | 0.00 | 48 | 1000.6 |
| 20260505001615 | 26 | 204 | 1.6 | 3.2 | 0.00 | 0.00 | 0.00 | 47 | 1000.4 |
| 20260505001113 | 26 | 206 | 3.2 | 3.2 | 0.00 | 0.00 | 0.00 | 47 | 1000.5 |
| 20260505000609 | 26 | 152 | 0.0 | 0.0 | 0.00 | 0.00 | 0.00 | 46 | 1000.7 |
| 20260505000108 | 26 | 215 | 1.6 | 1.6 | 0.00 | 0.00 | 0.00 | 46 | 1000.6 |
| 20260504235604 | 27 | 214 | 0.0 | 1.6 | 0.00 | 0.00 | 0.00 | 45 | 1000.5 |
| 20260504235100 | 27 | 202 | 3.2 | 3.2 | 0.00 | 0.00 | 0.00 | 44 | 1000.4 |
| 20260504234557 | 27 | 176 | 0.0 | 1.6 | 0.00 | 0.00 | 0.00 | 45 | 1000.2 |
| 20260504234054 | 27 | 179 | 1.6 | 3.2 | 0.00 | 0.00 | 0.00 | 44 | 1000.5 |
| 20260504233549 | 27 | 224 | 4.8 | 4.8 | 0.00 | 0.00 | 0.00 | 44 | 1000.6 |
| 20260504233046 | 28 | 209 | 11.3 | 12.9 | 0.00 | 0.00 | 0.00 | 42 | 1000.5 |
| 20260504232543 | 28 | 215 | 1.6 | 1.6 | 0.00 | 0.00 | 0.00 | 41 | 1000.5 |
| 20260504232041 | 28 | 168 | 1.6 | 1.6 | 0.00 | 0.00 | 0.00 | 42 | 1000.4 |
| 20260504231538 | 28 | 186 | 3.2 | 4.8 | 0.00 | 0.00 | 0.00 | 42 | 1000.6 |
| 20260504231034 | 28 | 115 | 0.0 | 1.6 | 0.00 | 0.00 | 0.00 | 42 | 1000.6 |
| 20260504230530 | 28 | 195 | 3.2 | 3.2 | 0.00 | 0.00 | 0.00 | 40 | 1000.7 |
| 20260504230029 | 28 | 196 | 1.6 | 1.6 | 0.00 | 0.00 | 0.00 | 40 | 1000.6 |
| 20260504225526 | 28 | 175 | 1.6 | 1.6 | 0.00 | 0.00 | 0.00 | 41 | 1000.7 |
| 20260504225023 | 28 | 185 | 1.6 | 1.6 | 0.00 | 0.00 | 0.00 | 40 | 1000.6 |
| 20260504224519 | 27 | 263 | 3.2 | 4.8 | 0.00 | 0.00 | 0.00 | 41 | 1000.8 |
| 20260504224017 | 27 | 269 | 0.0 | 1.6 | 0.00 | 0.00 | 0.00 | 42 | 1000.7 |
| 20260504223513 | 27 | 208 | 4.8 | 4.8 | 0.00 | 0.00 | 0.00 | 41 | 1000.8 |
| 20260504223009 | 27 | 200 | 4.8 | 4.8 | 0.00 | 0.00 | 0.00 | 41 | 1000.8 |
| 20260504222506 | 27 | 215 | 4.8 | 4.8 | 0.00 | 0.00 | 0.00 | 42 | 1000.9 |
| 20260504222004 | 27 | 168 | 0.0 | 1.6 | 0.00 | 0.00 | 0.00 | 41 | 1000.7 |
| 20260504221501 | 27 | 144 | 3.2 | 4.8 | 0.00 | 0.00 | 0.00 | 40 | 1000.6 |
| 20260504220957 | 27 | 193 | 3.2 | 4.8 | 0.00 | 0.00 | 0.00 | 41 | 1000.8 |
| 20260504220454 | 27 | 177 | 1.6 | 3.2 | 0.00 | 0.00 | 0.00 | 40 | 1000.9 |
| 20260504215951 | 27 | 43 | 3.2 | 4.8 | 0.00 | 0.00 | 0.00 | 41 | 1001.0 |
| 20260504215447 | 27 | 193 | 1.6 | 3.2 | 0.00 | 0.00 | 0.00 | 40 | 1000.9 |
| 20260504214944 | 28 | 176 | 4.8 | 8.0 | 0.00 | 0.00 | 0.00 | 40 | 1000.8 |
| 20260504214441 | 28 | 107 | 1.6 | 3.2 | 0.00 | 0.00 | 0.00 | 38 | 1000.9 |
| 20260504213937 | 28 | 173 | 1.6 | 3.2 | 0.00 | 0.00 | 0.00 | 39 | 1001.1 |
| 20260504213433 | 28 | 204 | 8.0 | 9.7 | 0.00 | 0.00 | 0.00 | 37 | 1001.0 |
| 20260504212931 | 28 | 190 | 4.8 | 4.8 | 0.00 | 0.00 | 0.00 | 38 | 1001.0 |
| 20260504212426 | 28 | 224 | 4.8 | 8.0 | 0.00 | 0.00 | 0.00 | 37 | 1001.0 |
| 20260504211925 | 28 | 329 | 6.4 | 9.7 | 0.00 | 0.00 | 0.00 | 37 | 1000.9 |
| 20260504211420 | 28 | 214 | 8.0 | 9.7 | 0.00 | 0.00 | 0.00 | 38 | 1000.9 |
| 20260504210918 | 29 | 166 | 1.6 | 1.6 | 0.00 | 0.00 | 0.00 | 38 | 1000.9 |
| 20260504210415 | 29 | 234 | 9.7 | 12.9 | 0.00 | 0.00 | 0.00 | 36 | 1000.9 |
| 20260504205912 | 29 | 119 | 1.6 | 1.6 | 0.00 | 0.00 | 0.00 | 37 | 1001.2 |
| 20260504205410 | 28 | 296 | 3.2 | 4.8 | 0.00 | 0.00 | 0.00 | 37 | 1001.1 |
| 20260504204908 | 28 | 187 | 6.4 | 11.3 | 0.00 | 0.00 | 0.00 | 37 | 1001.0 |
| 20260504204406 | 28 | 147 | 0.0 | 1.6 | 0.00 | 0.00 | 0.00 | 39 | 1001.3 |
| 20260504203905 | 29 | 194 | 4.8 | 8.0 | 0.00 | 0.00 | 0.00 | 38 | 1001.0 |
| 20260504203402 | 28 | 194 | 4.8 | 8.0 | 0.00 | 0.00 | 0.00 | 40 | 1001.2 |
| 20260504202857 | 29 | 210 | 4.8 | 9.7 | 0.00 | 0.00 | 0.00 | 38 | 1001.2 |
| 20260504202354 | 28 | 219 | 3.2 | 4.8 | 0.00 | 0.00 | 0.00 | 37 | 1001.3 |
| 20260504201851 | 28 | 54 | 1.6 | 3.2 | 0.00 | 0.00 | 0.00 | 39 | 1001.1 |
| 20260504201348 | 28 | 203 | 8.0 | 8.0 | 0.00 | 0.00 | 0.00 | 39 | 1001.5 |
| 20260504200846 | 28 | 165 | 0.0 | 1.6 | 0.00 | 0.00 | 0.00 | 39 | 1001.3 |
| 20260504200342 | 28 | 32 | 3.2 | 4.8 | 0.00 | 0.00 | 0.00 | 40 | 1001.6 |
| 20260504195839 | 28 | 214 | 11.3 | 14.5 | 0.00 | 0.00 | 0.00 | 39 | 1001.3 |
| 20260504195334 | 28 | 213 | 9.7 | 12.9 | 0.00 | 0.00 | 0.00 | 38 | 1001.5 |
| 20260504194832 | 28 | 167 | 3.2 | 3.2 | 0.00 | 0.00 | 0.00 | 39 | 1001.8 |
| 20260504194328 | 28 | 313 | 3.2 | 3.2 | 0.00 | 0.00 | 0.00 | 39 | 1001.5 |
| 20260504193824 | 28 | 188 | 1.6 | 1.6 | 0.00 | 0.00 | 0.00 | 39 | 1001.7 |
| 20260504193321 | 28 | 15 | 3.2 | 3.2 | 0.00 | 0.00 | 0.00 | 39 | 1001.6 |
| 20260504192820 | 27 | 225 | 11.3 | 12.9 | 0.00 | 0.00 | 0.00 | 39 | 1001.6 |
| 20260504192317 | 27 | 211 | 1.6 | 4.8 | 0.00 | 0.00 | 0.00 | 41 | 1001.6 |
| 20260504191815 | 28 | 216 | 16.1 | 17.7 | 0.00 | 0.00 | 0.00 | 38 | 1001.7 |
| 20260504191313 | 28 | 200 | 9.7 | 11.3 | 0.00 | 0.00 | 0.00 | 39 | 1001.8 |
| 20260504190808 | 27 | 253 | 4.8 | 9.7 | 0.00 | 0.00 | 0.00 | 41 | 1001.9 |
| 20260504190304 | 27 | 147 | 8.0 | 9.7 | 0.00 | 0.00 | 0.00 | 41 | 1001.9 |
| 20260504185801 | 27 | 223 | 8.0 | 11.3 | 0.00 | 0.00 | 0.00 | 40 | 1001.7 |
| 20260504185258 | 28 | 193 | 9.7 | 11.3 | 0.00 | 0.00 | 0.00 | 38 | 1002.0 |
| 20260504184754 | 27 | 104 | 0.0 | 1.6 | 0.00 | 0.00 | 0.00 | 41 | 1001.8 |
| 20260504184250 | 26 | 232 | 11.3 | 14.5 | 0.00 | 0.00 | 0.00 | 40 | 1001.8 |
| 20260504183746 | 26 | 224 | 4.8 | 9.7 | 0.00 | 0.00 | 0.00 | 40 | 1001.7 |
| 20260504183243 | 27 | 205 | 4.8 | 8.0 | 0.00 | 0.00 | 0.00 | 40 | 1001.7 |
| 20260504182741 | 27 | 203 | 0.0 | 1.6 | 0.00 | 0.00 | 0.00 | 41 | 1001.9 |
| 20260504182238 | 26 | 107 | 6.4 | 8.0 | 0.00 | 0.00 | 0.00 | 41 | 1001.9 |
| 20260504181736 | 26 | 48 | 4.8 | 9.7 | 0.00 | 0.00 | 0.00 | 41 | 1002.2 |
| 20260504181233 | 26 | 188 | 4.8 | 4.8 | 0.00 | 0.00 | 0.00 | 42 | 1002.1 |
| 20260504180732 | 26 | 206 | 14.5 | 16.1 | 0.00 | 0.00 | 0.00 | 42 | 1002.0 |
| 20260504180231 | 26 | 222 | 3.2 | 11.3 | 0.00 | 0.00 | 0.00 | 41 | 1002.0 |
| 20260504175728 | 26 | 182 | 4.8 | 4.8 | 0.00 | 0.00 | 0.00 | 42 | 1002.2 |
| 20260504175224 | 26 | 180 | 0.0 | 0.0 | 0.00 | 0.00 | 0.00 | 45 | 1002.2 |
| 20260504174722 | 26 | 222 | 1.6 | 3.2 | 0.00 | 0.00 | 0.00 | 43 | 1002.3 |
| 20260504174220 | 26 | 312 | 3.2 | 8.0 | 0.00 | 0.00 | 0.00 | 42 | 1002.2 |
| 20260504173716 | 26 | 174 | 4.8 | 8.0 | 0.00 | 0.00 | 0.00 | 41 | 1002.5 |
| 20260504173213 | 26 | 236 | 3.2 | 8.0 | 0.00 | 0.00 | 0.00 | 41 | 1002.5 |
| 20260504172710 | 26 | 117 | 0.0 | 1.6 | 0.00 | 0.00 | 0.00 | 43 | 1002.4 |
| 20260504172206 | 26 | 227 | 8.0 | 11.3 | 0.00 | 0.00 | 0.00 | 42 | 1002.3 |
| 20260504171703 | 26 | 175 | 1.6 | 1.6 | 0.00 | 0.00 | 0.00 | 43 | 1002.4 |
| 20260504171200 | 26 | 211 | 9.7 | 12.9 | 0.00 | 0.00 | 0.00 | 41 | 1002.6 |
| 20260504170656 | 26 | 203 | 8.0 | 11.3 | 0.00 | 0.00 | 0.00 | 39 | 1002.5 |
| 20260504170154 | 26 | 61 | 4.8 | 8.0 | 0.00 | 0.00 | 0.00 | 43 | 1002.6 |
| 20260504160112 | 23 | 190 | 4.8 | 8.0 | 0.00 | 0.00 | 0.00 | 46 | 1002.9 |
| 20260504151039 | 22 | 350 | 4.8 | 8.0 | 0.00 | 0.00 | 0.00 | 48 | 1002.7 |
| 20260504150537 | 22 | 59 | 4.8 | 9.7 | 0.00 | 0.00 | 0.00 | 48 | 1003.1 |
| 20260504141003 | 19 | 180 | 3.2 | 4.8 | 0.00 | 0.00 | 0.00 | 55 | 1003.3 |
| 20260504140459 | 19 | 179 | 0.0 | 0.0 | 0.00 | 0.00 | 0.00 | 55 | 1003.3 |
| 20260504130424 | 18 | 198 | 4.8 | 4.8 | 0.00 | 0.00 | 0.00 | 59 | 1003.5 |
| 20260504110310 | 12 | 165 | 0.0 | 0.0 | 0.00 | 0.00 | 0.00 | 88 | 1003.4 |
| 20260504100228 | 12 | 148 | 0.0 | 0.0 | 0.00 | 0.00 | 0.00 | 86 | 1004.1 |
| 20260504081621 | 12 | 172 | 0.0 | 0.0 | 0.00 | 0.00 | 0.00 | 84 | 1004.6 |
| 20260504081117 | 12 | 172 | 0.0 | 0.0 | 0.00 | 0.00 | 0.00 | 83 | 1004.7 |
| 20260504080614 | 13 | 172 | 0.0 | 0.0 | 0.00 | 0.00 | 0.00 | 83 | 1004.7 |
| 20260504080111 | 13 | 172 | 0.0 | 0.0 | 0.00 | 0.00 | 0.00 | 82 | 1004.9 |